User: anonymous   Login
Location: Caltech
(34.1382°N, 118.1253°W)
Time: 15:08:16
(UTC-07:00)
Language:

SL-16 R/B - Orbit

View from above orbital plane
View from above orbital plane
View from above satellite
View from above satellite

Ground track
Ground track

The orbit data is extracted from the following two-line orbital elements,

1 28353U 04021B   17289.24250977  .00000228  00000-0  14418-3 0  9994
2 28353  71.0017 184.5909 0005065 351.4889   8.6146 14.14205959689276
Epoch (UTC): 16 October 2017 05:49:12
Eccentricity: 0.0005065
inclination: 71.0017°
perigee height: 841 km
apogee height: 848 km
right ascension of ascending node: 184.5909°
argument of perigee: 351.4889°
revolutions per day: 14.14205959
mean anomaly at epoch: 8.6146°
orbit number at epoch: 68927

The dashed part of the orbit path shows where the satellite is in the earth's shadow,  

DLR